Location: Red Deer
(52.2681°N, 113.8112°W)
Time: 03:07:01
(UTC-07:00)

BlueWalker 3 - Pass Details

Date: 12 October 2023
Orbit: 489 x 504 km, 53.2° (Epoch: 29 November)

Event Time Altitude Azimuth Distance (km) Brightness Sun altitude
Rises 19:43:01 0° 208° (SSW) 2,549 5.9 -9.3°
Reaches altitude 10° 19:45:30 10° 193° (SSW) 1,672 4.8 -9.7°
Maximum altitude 19:48:29 22° 141° (SE) 1,100 3.3 -10.1°
Enters shadow 19:50:30 15° 100° (E) 1,397 3.5 -10.4°
